Weather History for Sault Ste Marie, MI

Change the Weather History Date:

Sunday, May 12, 2013

  Actual Average Record
Temperature  
Mean Temperature 1 °C 11 °C  
Max Temperature 2 °C 17 °C 27 °C (1991)
Min Temperature -1 °C 4 °C -3 °C (1976)
Degree Days  
Heating Degree Days 32 14  
Month to date heating degree days 148 192  
Since 1 July heating degree days 7996 8261  
Cooling Degree Days 0 0  
Month to date cooling degree days 0 0  
Year to date cooling degree days 0 0  
Moisture  
Dew Point -2 °C    
Average Humidity 79    
Maximum Humidity 89    
Minimum Humidity 69    
Precipitation  
Precipitation 10.41 mm 2.03 mm 3.38 mm (1978)
Month to date precipitation 0.97 0.93  
Year to date precipitation 12.78 8.80  
Sea Level Pressure  
Sea Level Pressure 1009 hPa    
Wind  
Wind Speed 29 km/h (NW)    
Max Wind Speed 50 km/h    
Max Gust Speed 68 km/h    
Visibility 6 kilometers    
Events Fog , Rain , Snow    
T = Trace of Precipitation, MM = Missing Value Source: NWS Daily Summary

Daily Weather History Graph

Daily Weather History Graph

Search for Another Location

Airport:

Trip Planner

Search our weather history database for the weather conditions in past years. The results will help you decide how hot, cold, wet, or windy it might be!

Date:

Astronomy

May. 12, 2013 Rise Set
Actual Time 6:07 AM EDT 9:01 PM EDT
Civil Twilight 5:32 AM EDT 9:36 PM EDT
Nautical Twilight 4:47 AM EDT 10:21 PM EDT
Astronomical Twilight 3:53 AM EDT 11:15 PM EDT
Moon 7:59 AM EDT (5/12) 11:29 PM EDT (5/12)
Length of Visible Light 16h 04m
Length of Day
14h 54m
Waxing Crescent, 6% of the Moon is Illuminated
May 12
Waxing Crescent
May 18
First Quarter
May 25
Full
May 31
Last Quarter
Jun 8
New

Hourly Weather History & Observations

Time (EDT) Temp. Windchill Dew Point Humidity Pressure Visibility Wind Dir Wind Speed Gust Speed Precip Events Conditions
12:55 AM 1.1 °C -4.1 °C -0.6 °C 89% 1003.0 hPa 6.4 km WNW 22.2 km/h / 6.2 m/s - 0.8 mm Snow Light Snow
1:11 AM 1.1 °C -3.9 °C -0.6 °C 89% 1002.6 hPa 4.0 km WNW 20.4 km/h / 5.7 m/s - 0.0 mm Snow Light Snow
1:26 AM 0.6 °C -4.5 °C -0.6 °C 92% 1002.6 hPa 2.4 km WNW 20.4 km/h / 5.7 m/s 27.8 km/h / 7.7 m/s 0.3 mm Snow Light Snow
1:55 AM 1.1 °C -4.6 °C -0.6 °C 89% 1002.8 hPa 4.8 km NW 25.9 km/h / 7.2 m/s 44.4 km/h / 12.3 m/s 1.3 mm Snow Light Snow
2:55 AM 1.1 °C -4.4 °C -0.6 °C 89% 1002.5 hPa 6.4 km NW 24.1 km/h / 6.7 m/s 38.9 km/h / 10.8 m/s 0.5 mm Snow Light Snow
3:25 AM 1.1 °C -4.8 °C -0.6 °C 89% 1002.9 hPa 4.0 km NW 27.8 km/h / 7.7 m/s 37.0 km/h / 10.3 m/s 0.5 mm Snow Light Snow
3:32 AM 1.1 °C -4.4 °C -0.6 °C 89% 1003.3 hPa 4.0 km NW 24.1 km/h / 6.7 m/s 35.2 km/h / 9.8 m/s 0.5 mm Snow Light Snow
3:46 AM 1.1 °C -4.6 °C -0.6 °C 89% 1003.6 hPa 2.4 km NW 25.9 km/h / 7.2 m/s - 1.0 mm Snow Light Snow
3:55 AM 1.1 °C -3.9 °C -0.6 °C 89% 1003.8 hPa 3.2 km NW 20.4 km/h / 5.7 m/s 38.9 km/h / 10.8 m/s 1.0 mm Snow Light Snow
4:02 AM 0.6 °C -5.0 °C -0.6 °C 92% 1002.9 hPa 2.8 km NNW 24.1 km/h / 6.7 m/s 48.2 km/h / 13.4 m/s 0.3 mm Snow Light Snow
4:55 AM 0.6 °C -5.8 °C -1.1 °C 89% 1005.3 hPa 1.6 km NW 31.5 km/h / 8.7 m/s 44.4 km/h / 12.3 m/s 1.8 mm Snow Light Snow
5:06 AM 0.6 °C -5.2 °C -1.1 °C 89% 1004.6 hPa 1.2 km NW 25.9 km/h / 7.2 m/s 44.4 km/h / 12.3 m/s 0.5 mm Snow Light Snow
5:18 AM 0.6 °C -5.4 °C -1.1 °C 89% 1004.6 hPa 1.6 km NW 27.8 km/h / 7.7 m/s 51.9 km/h / 14.4 m/s 0.8 mm Snow Light Snow
5:34 AM 0.6 °C -6.0 °C -1.7 °C 85% 1004.3 hPa 2.4 km NW 33.3 km/h / 9.3 m/s 48.2 km/h / 13.4 m/s 0.8 mm Snow Light Snow
5:37 AM 0.6 °C -6.0 °C -1.7 °C 85% 1004.3 hPa 3.2 km NNW 33.3 km/h / 9.3 m/s 48.2 km/h / 13.4 m/s 0.8 mm Snow Light Snow
5:43 AM 0.6 °C -5.6 °C -2.2 °C 82% 1004.3 hPa 6.4 km NNW 29.6 km/h / 8.2 m/s 48.2 km/h / 13.4 m/s 0.8 mm Snow Light Snow
5:55 AM 0.6 °C -5.2 °C -2.2 °C 82% 1005.2 hPa 16.1 km NW 25.9 km/h / 7.2 m/s 50.0 km/h / 13.9 m/s 0.8 mm   Overcast
6:55 AM 0.6 °C -6.3 °C -3.3 °C 75% 1006.2 hPa 16.1 km NW 37.0 km/h / 10.3 m/s 57.4 km/h / 15.9 m/s 0.0 mm   Partly Cloudy
7:55 AM 0.6 °C -6.5 °C -3.9 °C 72% 1007.0 hPa 16.1 km NW 38.9 km/h / 10.8 m/s 59.3 km/h / 16.5 m/s N/A   Overcast
8:45 AM 0.6 °C -6.8 °C -3.9 °C 72% 1006.0 hPa 16.1 km NW 42.6 km/h / 11.8 m/s 63.0 km/h / 17.5 m/s 0.0 mm Rain Light Rain
8:55 AM 0.6 °C -6.3 °C -3.9 °C 72% 1006.7 hPa 16.1 km NW 37.0 km/h / 10.3 m/s 57.4 km/h / 15.9 m/s 0.0 mm Rain Light Rain
9:30 AM 0.0 °C -7.1 °C -4.4 °C 73% 1006.7 hPa 16.1 km NW 37.0 km/h / 10.3 m/s 64.8 km/h / 18.0 m/s 0.0 mm Rain Light Rain
9:47 AM 0.0 °C -6.8 °C -4.4 °C 73% 1006.7 hPa 8.0 km NW 33.3 km/h / 9.3 m/s 64.8 km/h / 18.0 m/s 0.0 mm Snow Light Snow
9:55 AM 0.0 °C -7.1 °C -4.4 °C 73% 1007.5 hPa 6.4 km WNW 37.0 km/h / 10.3 m/s 68.5 km/h / 19.0 m/s 0.0 mm Snow Light Snow
10:15 AM 0.0 °C -6.6 °C -3.9 °C 75% 1006.7 hPa 3.2 km NW 31.5 km/h / 8.7 m/s 55.6 km/h / 15.4 m/s 0.0 mm Snow Light Snow
10:23 AM 0.0 °C -6.4 °C -3.9 °C 75% 1006.7 hPa 2.4 km NW 29.6 km/h / 8.2 m/s 61.1 km/h / 17.0 m/s 0.0 mm Snow Light Snow
10:53 AM -1.0 °C -8.6 °C -4.0 °C 80% 1007.3 hPa 1.2 km WNW 38.9 km/h / 10.8 m/s 64.8 km/h / 18.0 m/s 0.3 mm Snow Light Snow
10:55 AM -0.6 °C -8.5 °C -4.4 °C 76% 1007.9 hPa 0.8 km NW 44.4 km/h / 12.3 m/s 64.8 km/h / 18.0 m/s 0.3 mm Snow Snow
11:24 AM -1.1 °C -8.2 °C -3.9 °C 82% 1007.3 hPa 0.4 km WNW 33.3 km/h / 9.3 m/s 55.6 km/h / 15.4 m/s 0.3 mm Snow Heavy Snow
11:55 AM -1.1 °C -8.6 °C -3.3 °C 85% 1008.7 hPa 0.4 km WNW 37.0 km/h / 10.3 m/s 57.4 km/h / 15.9 m/s 0.8 mm Fog , Snow Heavy Snow
12:55 PM -1.1 °C -8.4 °C -3.3 °C 85% 1009.1 hPa 0.4 km WNW 35.2 km/h / 9.8 m/s 66.7 km/h / 18.5 m/s 1.3 mm Fog , Snow Snow
1:55 PM -0.6 °C -8.2 °C -2.8 °C 85% 1010.6 hPa 0.8 km NW 40.7 km/h / 11.3 m/s 55.6 km/h / 15.4 m/s 0.5 mm Fog , Snow Snow
2:16 PM -0.6 °C -6.8 °C -2.2 °C 89% 1010.0 hPa 0.4 km WNW 25.9 km/h / 7.2 m/s 44.4 km/h / 12.3 m/s 0.3 mm Fog , Snow Heavy Snow
2:55 PM 0.0 °C -6.4 °C -2.2 °C 85% 1011.5 hPa 0.8 km WNW 29.6 km/h / 8.2 m/s 51.9 km/h / 14.4 m/s 1.0 mm Fog , Snow Snow
3:55 PM 0.0 °C -6.2 °C -2.2 °C 85% 1012.0 hPa 0.8 km NW 27.8 km/h / 7.7 m/s 48.2 km/h / 13.4 m/s 0.5 mm Fog , Snow Snow
4:11 PM 0.6 °C -5.4 °C -1.7 °C 85% 1011.7 hPa 1.6 km NW 27.8 km/h / 7.7 m/s 53.7 km/h / 14.9 m/s 0.3 mm Snow Light Snow
4:55 PM 0.6 °C -5.2 °C -1.7 °C 85% 1013.0 hPa 1.6 km WNW 25.9 km/h / 7.2 m/s 42.6 km/h / 11.8 m/s 0.3 mm Snow Light Snow
5:16 PM 0.6 °C -5.8 °C -1.7 °C 85% 1012.4 hPa 1.2 km WNW 31.5 km/h / 8.7 m/s 42.6 km/h / 11.8 m/s 0.0 mm Snow Light Snow
5:34 PM 0.6 °C -6.0 °C -1.7 °C 85% 1012.8 hPa 2.0 km NW 33.3 km/h / 9.3 m/s 48.2 km/h / 13.4 m/s 0.3 mm Snow Light Snow
5:48 PM 0.6 °C -5.2 °C -1.7 °C 85% 1013.1 hPa 3.2 km WNW 25.9 km/h / 7.2 m/s 50.0 km/h / 13.9 m/s 0.3 mm Snow Light Snow
5:55 PM 0.6 °C -5.0 °C -1.7 °C 85% 1013.9 hPa 2.8 km WNW 24.1 km/h / 6.7 m/s 44.4 km/h / 12.3 m/s 0.3 mm Snow Light Snow
6:38 PM 0.6 °C -4.8 °C -1.7 °C 85% 1013.8 hPa 1.6 km WNW 22.2 km/h / 6.2 m/s 50.0 km/h / 13.9 m/s 0.0 mm Snow Light Snow
6:55 PM 0.6 °C -5.2 °C -1.7 °C 85% 1014.4 hPa 2.0 km WNW 25.9 km/h / 7.2 m/s 40.7 km/h / 11.3 m/s 0.3 mm Snow Light Snow
7:09 PM 1.1 °C -4.8 °C -1.7 °C 82% 1013.4 hPa 3.2 km WNW 27.8 km/h / 7.7 m/s 44.4 km/h / 12.3 m/s 0.0 mm Snow Light Snow
7:19 PM 1.1 °C -5.2 °C -1.7 °C 82% 1013.4 hPa 8.0 km WNW 31.5 km/h / 8.7 m/s 40.7 km/h / 11.3 m/s 0.0 mm Snow Light Snow
7:36 PM 1.7 °C -4.2 °C -2.8 °C 72% 1013.8 hPa 14.5 km WNW 29.6 km/h / 8.2 m/s 42.6 km/h / 11.8 m/s 0.0 mm   Overcast
7:55 PM 1.7 °C -3.8 °C -3.3 °C 70% 1014.8 hPa 16.1 km WNW 25.9 km/h / 7.2 m/s 42.6 km/h / 11.8 m/s 0.0 mm Rain Light Rain
8:55 PM 1.7 °C -3.4 °C -2.2 °C 76% 1015.2 hPa 12.9 km WNW 22.2 km/h / 6.2 m/s 37.0 km/h / 10.3 m/s 0.0 mm Snow Light Snow
9:55 PM 1.7 °C -2.9 °C -2.8 °C 72% 1015.1 hPa 16.1 km WNW 18.5 km/h / 5.1 m/s 33.3 km/h / 9.3 m/s 0.0 mm   Overcast
10:55 PM 1.7 °C -3.4 °C -2.8 °C 72% 1015.6 hPa 16.1 km WNW 22.2 km/h / 6.2 m/s - 0.0 mm   Overcast
11:55 PM 1.7 °C -2.6 °C -2.2 °C 76% 1015.3 hPa 16.1 km WNW 16.7 km/h / 4.6 m/s - N/A   Overcast